Terminal Aerodrome Forecast
Issued by NWS Norman, OK

Home | Current Version | Previous Version | Text Only | Print | Product List | Glossary On
Versions: 1 2 3 4 5 6 7 8 9 10 11 12 13 14 15 16 17 18 19 20 21
000
FTUS44 KOUN 010520
TAFSPS
TAF
KSPS 010520Z 0106/0206 18011KT P6SM SKC
     FM011300 20010G15KT P6SM SKC
     FM011500 22016G25KT P6SM SKC
     FM020100 18012KT P6SM SKC=

USA.gov is the U.S. government's official web portal to all federal, state and local government web resources and services.